Location: Seclusion Ranch
(37.6167°N, 104.1333°W)
Time: 21:53:39
(UTC-07:00)

ISS - Visible Passes

Search period start: 15 February 2019 00:00
Search period end: 25 February 2019 00:00
Orbit: 403 x 411 km, 51.6° (Epoch: 16 February)

Date Brightness Start Highest point End Pass type
(mag) Time Alt. Az. Time Alt. Az. Time Alt. Az.
22 Feb -1.6 05:30:25 10° S 05:33:08 25° SE 05:35:52 10° ENE visible
23 Feb -0.8 04:40:19 10° SSE 04:41:49 13° SE 04:43:18 10° E visible
24 Feb -3.7 05:24:18 19° SW 05:26:27 72° SE 05:29:42 10° NE visible
